• In Hungary
  • List of Countries
  • For 7 days
  • Water Temperature
  • Satellite Maps
  • Weather Map
  • News
  • Weather Widgets
  • user-avatar
    Login

    Hourly Weather Karazirikovo

    Today, 16 July, Monday

    Time Temperature Precipitation Wind Pressure Humidity
    00:00 +20°C° 0 mm 3 mps 746 mmHg 90%
    01:00 +19°C° 0 mm 3 mps 746 mmHg 90%
    02:00 +19°C° 0 mm 3 mps 746 mmHg 91%
    03:00 +18°C° 0 mm 3 mps 746 mmHg 92%
    04:00 +18°C° 0 mm 3 mps 746 mmHg 93%
    05:00 +19°C° 0 mm 3 mps 747 mmHg 91%
    06:00 +20°C° 0 mm 3 mps 747 mmHg 88%
    07:00 +21°C° 0 mm 3 mps 747 mmHg 86%
    08:00 +22°C° 0 mm 3 mps 747 mmHg 82%
    09:00 +24°C° 0 mm 3 mps 747 mmHg 78%
    10:00 +26°C° 0 mm 3 mps 747 mmHg 74%
    11:00 +26°C° 0 mm 3 mps 747 mmHg 70%
    12:00 +27°C° 0 mm 3 mps 747 mmHg 66%
    13:00 +28°C° 0 mm 4 mps 747 mmHg 62%
    14:00 +28°C° 0 mm 3 mps 747 mmHg 62%
    15:00 +28°C° 0 mm 3 mps 747 mmHg 61%
    16:00 +28°C° 0 mm 3 mps 747 mmHg 60%
    17:00 +28°C° 0 mm 2 mps 746 mmHg 64%
    18:00 +27°C° 0 mm 2 mps 746 mmHg 67%
    19:00 +27°C° 0 mm 1 mps 746 mmHg 71%
    20:00 +25°C° 0 mm 2 mps 746 mmHg 72%
    21:00 +24°C° 0 mm 2 mps 746 mmHg 74%
    22:00 +21°C° 0 mm 2 mps 747 mmHg 75%
    23:00 +21°C° 0 mm 2 mps 747 mmHg 76%

    Tomorrow, 17 July, Tuesday

    Time Temperature Precipitation Wind Pressure Humidity
    00:00 +20°C° 0 mm 3 mps 747 mmHg 78%
    01:00 +20°C° 0 mm 3 mps 747 mmHg 79%
    02:00 +19°C° 0 mm 3 mps 746 mmHg 82%
    03:00 +19°C° 0 mm 3 mps 746 mmHg 85%
    04:00 +18°C° 0 mm 3 mps 746 mmHg 87%
    05:00 +19°C° 0 mm 3 mps 746 mmHg 85%
    06:00 +19°C° 0 mm 4 mps 747 mmHg 83%
    07:00 +20°C° 0 mm 4 mps 747 mmHg 81%
    08:00 +21°C° 0 mm 4 mps 747 mmHg 79%
    09:00 +22°C° 0 mm 4 mps 747 mmHg 76%
    10:00 +25°C° 0 mm 4 mps 746 mmHg 73%
    11:00 +25°C° 0 mm 4 mps 746 mmHg 72%
    12:00 +26°C° 0 mm 4 mps 746 mmHg 70%
    13:00 +27°C° 0 mm 5 mps 746 mmHg 68%
    14:00 +27°C° 0 mm 4 mps 746 mmHg 68%
    15:00 +27°C° 0 mm 4 mps 746 mmHg 68%
    16:00 +27°C° 0 mm 4 mps 745 mmHg 68%
    17:00 +27°C° 0 mm 4 mps 745 mmHg 72%
    18:00 +26°C° 0 mm 3 mps 745 mmHg 75%
    19:00 +26°C° 0 mm 3 mps 745 mmHg 78%
    20:00 +25°C° 0.1 mm 3 mps 745 mmHg 78%
    21:00 +24°C° 0.1 mm 3 mps 745 mmHg 79%
    22:00 +22°C° 0.1 mm 3 mps 745 mmHg 79%
    23:00 +21°C° 0.5 mm 4 mps 745 mmHg 82%

    Day after tomorrow, 18 July, Wednesday

    Time Temperature Precipitation Wind Pressure Humidity
    00:00 +21°C° 0.5 mm 4 mps 745 mmHg 85%
    01:00 +20°C° 0.5 mm 4 mps 744 mmHg 88%
    02:00 +20°C° 0.5 mm 4 mps 744 mmHg 89%
    03:00 +20°C° 0.5 mm 4 mps 744 mmHg 90%
    04:00 +20°C° 0.5 mm 4 mps 744 mmHg 90%
    05:00 +20°C° 0.1 mm 5 mps 744 mmHg 90%
    06:00 +20°C° 0.1 mm 5 mps 744 mmHg 91%
    07:00 +20°C° 0.1 mm 5 mps 744 mmHg 91%
    08:00 +21°C° 0.1 mm 5 mps 744 mmHg 88%
    09:00 +22°C° 0.1 mm 5 mps 744 mmHg 86%
    10:00 +23°C° 0.1 mm 5 mps 744 mmHg 83%
    11:00 +25°C° 0.4 mm 4 mps 744 mmHg 81%
    12:00 +26°C° 0.4 mm 4 mps 744 mmHg 79%
    13:00 +27°C° 0.4 mm 4 mps 744 mmHg 77%
    14:00 +27°C° 0.7 mm 4 mps 744 mmHg 77%
    15:00 +27°C° 0.7 mm 3 mps 744 mmHg 77%
    16:00 +28°C° 0.7 mm 3 mps 744 mmHg 77%
    17:00 +27°C° 0.5 mm 3 mps 744 mmHg 79%
    18:00 +27°C° 0.5 mm 2 mps 745 mmHg 82%
    19:00 +27°C° 0.5 mm 2 mps 745 mmHg 84%
    20:00 +25°C° 0.3 mm 2 mps 745 mmHg 86%
    21:00 +24°C° 0.3 mm 2 mps 745 mmHg 88%
    22:00 +23°C° 0.3 mm 2 mps 745 mmHg 90%
    23:00 +21°C° 0 mm 2 mps 745 mmHg 91%

    19 July, Thursday

    Time Temperature Precipitation Wind Pressure Humidity
    00:00 +21°C° 0 mm 2 mps 745 mmHg 91%
    01:00 +20°C° 0 mm 2 mps 745 mmHg 92%
    02:00 +21°C° 0 mm 1 mps 745 mmHg 92%
    03:00 +20°C° 0 mm 1 mps 745 mmHg 93%
    04:00 +20°C° 0 mm 1 mps 745 mmHg 93%
    05:00 +21°C° 0 mm 1 mps 746 mmHg 91%
    06:00 +22°C° 0 mm 1 mps 746 mmHg 88%
    07:00 +23°C° 0 mm 1 mps 746 mmHg 86%
    08:00 +24°C° 0 mm 1 mps 746 mmHg 82%
    09:00 +25°C° 0 mm 1 mps 746 mmHg 78%
    10:00 +27°C° 0 mm 1 mps 746 mmHg 74%
    11:00 +27°C° 0.1 mm 1 mps 746 mmHg 70%
    12:00 +28°C° 0.1 mm 1 mps 746 mmHg 67%
    13:00 +29°C° 0.1 mm 1 mps 746 mmHg 63%
    14:00 +29°C° 0.1 mm 1 mps 746 mmHg 62%
    15:00 +29°C° 0.1 mm 1 mps 746 mmHg 61%
    16:00 +30°C° 0.1 mm 1 mps 746 mmHg 59%
    17:00 +29°C° 0.1 mm 1 mps 746 mmHg 64%
    18:00 +29°C° 0.1 mm 1 mps 746 mmHg 68%
    19:00 +28°C° 0.1 mm 1 mps 746 mmHg 72%
    20:00 +26°C° 0.2 mm 1 mps 746 mmHg 76%
    21:00 +23°C° 0.2 mm 0 mps 746 mmHg 80%
    22:00 +21°C° 0.2 mm 0 mps 746 mmHg 84%
    23:00 +21°C° 0 mm 0 mps 746 mmHg 85%

    20 July, Friday

    Time Temperature Precipitation Wind Pressure Humidity
    00:00 +20°C° 0 mm 0 mps 746 mmHg 86%
    01:00 +20°C° 0 mm 0 mps 746 mmHg 87%
    02:00 +19°C° 0 mm 0 mps 746 mmHg 88%
    03:00 +19°C° 0 mm 0 mps 746 mmHg 89%
    04:00 +21°C° 0 mm 1 mps 746 mmHg 90%
    05:00 +22°C° 0 mm 1 mps 746 mmHg 89%
    06:00 +23°C° 0 mm 1 mps 746 mmHg 87%
    07:00 +24°C° 0 mm 1 mps 746 mmHg 85%
    08:00 +25°C° 0.1 mm 1 mps 746 mmHg 82%
    09:00 +26°C° 0.1 mm 1 mps 746 mmHg 78%
    10:00 +27°C° 0.1 mm 2 mps 746 mmHg 75%
    11:00 +28°C° 0.4 mm 2 mps 746 mmHg 72%
    12:00 +28°C° 0.4 mm 2 mps 746 mmHg 70%
    13:00 +29°C° 0.4 mm 2 mps 746 mmHg 67%
    14:00 +29°C° 0.7 mm 2 mps 746 mmHg 67%
    15:00 +29°C° 0.7 mm 3 mps 746 mmHg 68%
    16:00 +29°C° 0.7 mm 3 mps 746 mmHg 69%
    17:00 +28°C° 0.2 mm 3 mps 746 mmHg 73%
    18:00 +27°C° 0.2 mm 3 mps 746 mmHg 77%
    19:00 +27°C° 0.2 mm 3 mps 746 mmHg 81%
    20:00 +25°C° 0.1 mm 3 mps 746 mmHg 84%
    21:00 +24°C° 0.1 mm 3 mps 746 mmHg 86%
    22:00 +21°C° 0.1 mm 4 mps 746 mmHg 89%
    23:00 +21°C° 0 mm 4 mps 746 mmHg 90%

    21 July, Saturday

    Time Temperature Precipitation Wind Pressure Humidity
    00:00 +20°C° 0 mm 4 mps 746 mmHg 91%
    01:00 +19°C° 0 mm 4 mps 746 mmHg 92%
    02:00 +19°C° 0.2 mm 4 mps 746 mmHg 92%
    03:00 +19°C° 0.2 mm 4 mps 746 mmHg 93%
    04:00 +18°C° 0.2 mm 4 mps 746 mmHg 94%
    05:00 +19°C° 0.2 mm 4 mps 746 mmHg 91%
    06:00 +20°C° 0.2 mm 5 mps 746 mmHg 89%
    07:00 +20°C° 0.2 mm 5 mps 746 mmHg 87%
    08:00 +22°C° 0 mm 5 mps 747 mmHg 83%
    09:00 +23°C° 0 mm 5 mps 747 mmHg 78%
    10:00 +24°C° 0 mm 6 mps 747 mmHg 74%
    11:00 +26°C° 0 mm 6 mps 747 mmHg 70%
    12:00 +26°C° 0 mm 6 mps 747 mmHg 67%
    13:00 +27°C° 0 mm 6 mps 747 mmHg 63%
    14:00 +27°C° 0.1 mm 6 mps 747 mmHg 64%
    15:00 +27°C° 0.1 mm 6 mps 747 mmHg 64%
    16:00 +27°C° 0.1 mm 6 mps 747 mmHg 64%
    17:00 +26°C° 0.1 mm 5 mps 747 mmHg 67%
    18:00 +25°C° 0.1 mm 5 mps 747 mmHg 70%
    19:00 +23°C° 0.1 mm 5 mps 747 mmHg 74%
    20:00 +22°C° 0 mm 5 mps 748 mmHg 73%
    21:00 +21°C° 0 mm 6 mps 748 mmHg 72%
    22:00 +20°C° 0 mm 6 mps 748 mmHg 71%
    23:00 +19°C° 0 mm 6 mps 748 mmHg 72%
    Show more